sat.trackr.live / text

‹ back to catalog

STARLINK-32552

NORAD 62174 · 2024-225M

PAYLOAD ACTIVE UNKNOWN

§ Identity

Operator
Country
US
Launch date
2024-11-30
Launch site
AFWTR
Launch vehicle
Mass (kg)
RCS (m²)

Purposes: comms

External: N2YO · Heavens-Above · Gunter

§ Orbital elements

Epoch: 2026-05-24T23:12:35.934048Z

Period
96.10 min
Inclination
70.0011°
Eccentricity
0.0002892
Mean motion
14.98412950 rev/d
Perigee alt
569.8 km
Apogee alt
573.8 km
Semi-major
6,949.9 km
B*
2.4750e-3
RAAN
332.0155°
Arg perigee
272.2667°
Mean anomaly
87.8161°
Rev number
8,130

§ Raw data

STARLINK-325521 62174U 24225M   26144.96708257  .00029627  00000+0  24750-2 0  99912 62174  70.0011 332.0155 0002892 272.2667  87.8161 14.98412950 81309

JSON: /api/v1/satellites/62174 · /tle

For live sub-satellite position, see the globe view (requires WebGL).

§ Visibility from observer

Set your observer location to see the next 7 days of passes ≥ 10°. The values pass through the URL so the page stays shareable.

No JS? Fill the form by hand. The geolocation button needs JavaScript.